Lewistown, MT

6:42 AM MDT on October 22, 2017 (GMT -0600)
Lewistown Municipal

Weather History for KLWT - September, 2013

Change the Weather History Date:

Thursday, September 5, 2013

  Actual Average Record
Temperature  
Mean Temperature 75 °F 59 °F  
Max Temperature 94 °F 74 °F 96 °F (1967)
Min Temperature 56 °F 44 °F 28 °F (1956)
Degree Days  
Heating Degree Days 0 7  
Month to date heating degree days 0 32  
Since 1 July heating degree days 39 190  
Cooling Degree Days 10 1  
Month to date cooling degree days 36 5  
Year to date cooling degree days 266 201  
Growing Degree Days 24 (Base 50)    
Moisture  
Dew Point 53 °F    
Average Humidity 53    
Maximum Humidity 84    
Minimum Humidity 21    
Precipitation  
Precipitation 0.08 in 0.05 in 0.97 in (1937)
Month to date precipitation 0.08 0.24  
Year to date precipitation 18.14 13.24  
Snow  
Snow 0.00 in - - ()
Snow Depth 0.00 in    
Sea Level Pressure  
Sea Level Pressure 29.97 in    
Wind  
Wind Speed 8 mph (SSE)    
Max Wind Speed 46 mph    
Max Gust Speed 56 mph    
Visibility 10 miles    
Events Rain    
T = Trace of Precipitation, MM = Missing Value Source: NWS Daily Summary

Daily Weather History Graph

Daily Weather History Graph

Search for Another Location

Airport or City:

Trip Planner

Search our weather history database for the weather conditions in past years. The results will help you decide how hot, cold, wet, or windy it might be!

Date:

Astronomy

Sep. 05, 2013 Rise Set
Actual Time 6:42 AM MDT 7:49 PM MDT
Civil Twilight 6:11 AM MDT 8:20 PM MDT
Nautical Twilight 5:34 AM MDT 8:57 PM MDT
Astronomical Twilight 4:54 AM MDT 9:37 PM MDT
Moon 7:02 AM MDT (9/5) 7:36 PM MDT (9/5)
Length of Visible Light 14h 08m
Length of Day
13h 06m
New Moon, 0% of the Moon is Illuminated
Sep 5
New Moon
Sep 12
First Quarter
Sep 19
Full
Sep 26
Last Quarter
Oct 4
New

Hourly Weather History & Observations

Time (MDT) Temp. Heat Index Dew Point Humidity Pressure Visibility Wind Dir Wind Speed Gust Speed Precip Events Conditions
12:54 AM 63.0 °F - 51.1 °F 65% 30.01 in 10.0 mi South 6.9 mph - N/A   Clear
1:54 AM 60.1 °F - 51.1 °F 72% 30.01 in 10.0 mi SE 5.8 mph - N/A   Clear
2:54 AM 59.0 °F - 51.1 °F 75% 30.00 in 10.0 mi SSE 5.8 mph - N/A   Clear
3:54 AM 57.0 °F - 51.1 °F 81% 30.01 in 10.0 mi SE 6.9 mph - N/A   Clear
4:54 AM 57.9 °F - 51.1 °F 78% 29.99 in 10.0 mi SSE 6.9 mph - N/A   Clear
5:54 AM 57.9 °F - 50.0 °F 75% 29.99 in 10.0 mi East 5.8 mph - N/A   Clear
6:54 AM 57.9 °F - 51.1 °F 78% 30.02 in 10.0 mi SSE 8.1 mph - N/A   Clear
7:54 AM 61.0 °F - 52.0 °F 72% 30.03 in 10.0 mi Calm Calm - N/A   Clear
8:54 AM 71.1 °F - 52.0 °F 51% 30.01 in 10.0 mi Calm Calm - N/A   Clear
9:54 AM 75.9 °F - 55.0 °F 48% 29.99 in 10.0 mi Calm Calm - N/A   Clear
10:54 AM 82.0 °F 81.4 °F 55.0 °F 39% 29.97 in 10.0 mi Calm Calm - N/A   Clear
11:54 AM 87.1 °F - 51.1 °F 29% 29.95 in 10.0 mi NW 3.5 mph - N/A   Clear
12:54 PM 89.1 °F - 51.1 °F 27% 29.93 in 10.0 mi Calm Calm - N/A   Clear
1:54 PM 91.0 °F - 48.9 °F 23% 29.91 in 10.0 mi SSE 9.2 mph - N/A   Clear
2:54 PM 91.9 °F - 46.9 °F 21% 29.89 in 10.0 mi Calm Calm - N/A   Clear
3:54 PM 89.1 °F - 45.0 °F 22% 29.89 in 10.0 mi SW 16.1 mph - N/A   Clear
4:54 PM 79.0 °F - 54.0 °F 42% 29.98 in 10.0 mi SSW 40.3 mph 56.4 mph N/A   Squalls
5:54 PM 66.9 °F - 62.1 °F 84% 29.98 in 10.0 mi WSW 13.8 mph 24.2 mph 0.01 in Rain Light Rain
6:54 PM 73.0 °F - 60.1 °F 64% 29.93 in 10.0 mi SSE 4.6 mph - 0.00 in   Clear
7:54 PM 69.1 °F - 57.9 °F 68% 29.94 in 10.0 mi ESE 5.8 mph - N/A   Clear
8:54 PM 64.0 °F - 57.9 °F 80% 29.94 in 10.0 mi ESE 8.1 mph - N/A   Clear
9:54 PM 62.1 °F - 57.0 °F 84% 29.97 in 10.0 mi Calm Calm - N/A   Clear
10:54 PM 64.0 °F - 57.9 °F 80% 29.94 in 10.0 mi SSW 5.8 mph - N/A   Mostly Cloudy
11:54 PM 66.0 °F - 60.1 °F 81% 30.02 in 7.0 mi WSW 28.8 mph 46.0 mph 0.02 in Rain Light Rain